GW1419 Weather Reports


Display with metric or nautical units.
time (UTC)temp
F
wind
direction
speed
MPH
gust
MPH
rain 1hr
in
rain 24hr
in
rain mn
in
humidity
%
barometer
mb
20260906133054 79 28 3.0 8.0 0.00 0.00 0.00 89 1012.8
20260906131551 78 5 3.0 6.0 0.00 0.00 0.00 92 1012.8
20260906130052 77 5 2.0 3.0 0.00 0.00 0.00 95 1012.7
20260906124550 76 5 0.0 3.0 0.00 0.00 0.00 95 1012.6
20260906123046 74 5 0.0 1.0 0.00 0.00 0.00 94 1012.5
20260906121545 74 5 0.0 0.0 0.00 0.00 0.00 92 1012.2
20260906120049 74 5 0.0 0.0 0.00 0.00 0.00 92 1012.1
20260906114542 74 5 0.0 2.0 0.00 0.00 0.00 93 1012.0
20260906113039 75 5 0.0 2.0 0.00 0.00 0.00 92 1011.8
20260906111539 75 5 0.0 1.0 0.00 0.00 0.00 92 1011.5
20260906110041 75 5 0.0 0.0 0.00 0.00 0.00 91 1011.1
20260906104535 75 5 0.0 2.0 0.00 0.00 0.00 92 1011.1
20260906103034 75 5 0.0 0.0 0.00 0.00 0.00 92 1011.2
20260906101533 75 5 0.0 0.0 0.00 0.00 0.00 92 1011.2
20260906100032 75 5 0.0 0.0 0.00 0.00 0.00 91 1011.2
20260906094552 75 5 0.0 3.0 0.00 0.00 0.00 92 1011.1
20260906093037 75 5 1.0 3.0 0.00 0.00 0.00 91 1011.0
20260906091539 75 5 1.0 3.0 0.00 0.00 0.00 91 1011.0
20260906090030 75 5 1.0 5.0 0.00 0.00 0.00 91 1010.9
20260906084535 75 5 2.0 6.0 0.00 0.00 0.00 90 1010.9
20260906083034 75 210 0.0 0.0 0.00 0.00 0.00 89 1010.8
20260906081542 75 210 0.0 0.0 0.00 0.00 0.00 89 1010.7
20260906080026 75 210 0.0 0.0 0.00 0.00 0.00 89 1010.7
20260906074525 76 210 0.0 0.0 0.00 0.00 0.00 89 1010.8
20260906073025 76 210 0.0 0.0 0.00 0.00 0.00 89 1010.9
20260906071522 76 210 0.0 0.0 0.00 0.00 0.00 89 1011.0
20260906070021 76 210 0.0 0.0 0.00 0.00 0.00 88 1010.9
20260906064521 76 210 0.0 0.0 0.00 0.00 0.00 87 1010.9
20260906063022 77 210 0.0 0.0 0.00 0.00 0.00 87 1011.0
20260906061531 77 210 0.0 0.0 0.00 0.00 0.00 86 1011.0
20260906060017 77 210 0.0 1.0 0.00 0.00 0.00 86 1011.0
20260906054516 77 210 0.0 0.0 0.00 0.00 0.00 85 1011.1
20260906053016 78 210 0.0 1.0 0.00 0.00 0.00 86 1011.1
20260906051508 78 210 0.0 0.0 0.00 0.00 0.00 83 1010.8
20260906050006 78 210 0.0 0.0 0.00 0.00 0.00 83 1010.8
20260906044505 79 210 0.0 0.0 0.00 0.00 0.00 83 1010.8
20260906043005 79 210 0.0 0.0 0.00 0.00 0.00 83 1010.9
20260906041504 79 210 0.0 0.0 0.00 0.00 0.00 82 1011.0
20260906040004 79 210 0.0 0.0 0.00 0.00 0.00 82 1010.9
20260906034503 80 210 0.0 0.0 0.00 0.00 0.00 81 1010.8
20260906033002 80 210 0.0 0.0 0.00 0.00 0.00 80 1010.9
20260906031502 81 210 0.0 0.0 0.00 0.00 0.00 79 1011.1
20260906030002 82 210 0.0 0.0 0.00 0.00 0.00 78 1011.1
20260906024603 82 210 0.0 0.0 0.00 0.00 0.00 77 1011.0
20260906023102 83 210 1.0 4.0 0.00 0.00 0.00 77 1011.0
20260906021606 84 209 2.0 3.0 0.00 0.00 0.00 75 1010.6
20260906014601 86 210 0.0 6.0 0.00 0.00 0.00 71 1010.1
20260906013058 87 114 0.0 0.0 0.00 0.00 0.00 68 1009.9
20260906011602 88 114 0.0 0.0 0.00 0.00 0.00 64 1009.9
20260906010106 90 114 0.0 0.0 0.00 0.00 0.00 61 1009.5
20260906004600 94 114 0.0 1.0 0.00 0.00 0.00 57 1009.6
20260906003059 96 114 1.0 3.0 0.00 0.00 0.00 52 1009.5
20260906001605 98 114 0.0 2.0 0.00 0.00 0.00 48 1009.7
20260906000050 100 114 1.0 3.0 0.00 0.00 0.00 47 1009.7
20260905234549 100 114 0.0 0.0 0.00 0.00 0.00 47 1009.7
20260905233050 101 114 1.0 3.0 0.00 0.00 0.00 45 1009.7
20260905231547 101 119 1.0 6.0 0.00 0.00 0.00 44 1009.7
20260905230052 104 111 5.0 8.0 0.00 0.00 0.00 42 1009.7
20260905224556 104 238 0.0 0.0 0.00 0.00 0.00 44 1009.7
20260905223046 103 238 0.0 3.0 0.00 0.00 0.00 43 1009.7
20260905221547 103 238 0.0 4.0 0.00 0.00 0.00 44 1009.6
20260905220043 103 185 1.0 3.0 0.00 0.00 0.00 42 1009.7
20260905214541 103 89 0.0 7.0 0.00 0.00 0.00 43 1009.7
20260905213041 104 157 2.0 6.0 0.00 0.00 0.00 42 1009.7
20260905211545 105 290 0.0 0.0 0.00 0.00 0.00 40 1009.7
20260905210053 105 290 0.0 3.0 0.00 0.00 0.00 40 1010.0
20260905204533 105 285 0.0 5.0 0.00 0.00 0.00 39 1010.3
20260905203033 104 342 0.0 4.0 0.00 0.00 0.00 42 1010.7
20260905201527 103 10 1.0 8.0 0.00 0.00 0.00 40 1010.9
20260905200030 103 40 0.0 4.0 0.00 0.00 0.00 44 1011.0
20260905194520 102 64 0.0 4.0 0.00 0.00 0.00 43 1011.3
20260905193017 102 65 1.0 5.0 0.00 0.00 0.00 44 1011.4
20260905191514 102 31 1.0 5.0 0.00 0.00 0.00 44 1011.7
20260905190011 102 292 1.0 3.0 0.00 0.00 0.00 45 1012.0
20260905184509 102 267 2.0 4.0 0.00 0.00 0.00 46 1012.2
20260905183007 102 292 0.0 5.0 0.00 0.00 0.00 48 1012.2
20260905181503 101 284 2.0 6.0 0.00 0.00 0.00 47 1012.2
20260905174602 100 285 1.0 4.0 0.00 0.00 0.00 51 1012.4
20260905173055 99 344 0.0 5.0 0.00 0.00 0.00 53 1012.6
20260905171604 99 324 1.0 4.0 0.00 0.00 0.00 54 1012.8
20260905170056 99 324 2.0 5.0 0.00 0.00 0.00 54 1012.9
20260905164548 97 311 1.0 4.0 0.00 0.00 0.00 56 1013.2
20260905163046 97 329 0.0 4.0 0.00 0.00 0.00 58 1013.5
20260905161544 96 298 0.0 4.0 0.00 0.00 0.00 59 1013.6
20260905160047 95 247 0.0 4.0 0.00 0.00 0.00 62 1013.5
20260905154550 93 340 0.0 5.0 0.00 0.00 0.00 64 1013.6
20260905153033 92 298 0.0 4.0 0.00 0.00 0.00 67 1013.6
20260905151530 92 257 0.0 3.0 0.00 0.00 0.00 70 1013.6
20260905150025 89 257 0.0 3.0 0.00 0.00 0.00 75 1013.6
20260905144534 87 257 0.0 2.0 0.00 0.00 0.00 77 1013.7
20260905143017 85 257 0.0 2.0 0.00 0.00 0.00 82 1013.7
20260905141512 84 257 0.0 3.0 0.00 0.00 0.00 84 1013.7
20260905140009 82 257 0.0 0.0 0.00 0.00 0.00 87 1013.5
20260905134507 80 257 0.0 1.0 0.00 0.00 0.00 91 1013.6